FW1490 Weather Reports


time (UTC)temp
C
wind
direction
speed
KPH
gust
KPH
rain 1hr
cm
rain 24hr
cm
rain mn
cm
humidity
%
barometer
mb
20260906203031 32 138 20.9 38.6 0.00 0.00 0.00 43 1004.2
20260906201522 32 146 25.7 41.8 0.00 0.00 0.00 43 1004.5
20260906200035 32 184 25.7 38.6 0.00 0.00 0.00 44 1004.6
20260906194518 32 153 25.7 45.1 0.00 0.00 0.00 45 1004.8
20260906193017 32 146 19.3 45.1 0.00 0.00 0.00 47 1005.0
20260906191514 31 154 24.1 46.7 0.00 0.00 0.00 48 1005.2
20260906190014 31 140 24.1 51.5 0.00 0.00 0.00 50 1005.4
20260906190012 31 146 24.1 51.5 0.00 0.00 0.00 50 1005.4
20260906184511 31 125 27.4 46.7 0.00 0.00 0.00 48 1005.6
20260906183020 31 130 25.7 46.7 0.00 0.00 0.00 51 1005.7
20260906181542 30 150 25.7 45.1 0.00 0.00 0.00 51 1006.1
20260906180040 30 115 24.1 38.6 0.00 0.00 0.00 52 1006.2
20260906174536 30 123 22.5 45.1 0.00 0.00 0.00 54 1006.4
20260906173027 29 121 24.1 43.5 0.00 0.00 0.00 55 1006.7
20260906171523 27 140 24.1 41.8 0.00 0.00 0.00 60 1007.0
20260906170023 27 121 27.4 43.5 0.00 0.00 0.00 61 1007.1
20260906164556 27 150 20.9 30.6 0.00 0.00 0.00 62 1007.2
20260906163053 27 101 25.7 43.5 0.00 0.00 0.00 62 1007.3
20260906161548 26 110 20.9 33.8 0.00 0.00 0.00 65 1007.5
20260906160050 25 136 17.7 40.2 0.00 0.00 0.00 68 1007.3
20260906154543 25 107 22.5 37.0 0.00 0.00 0.00 68 1007.1
20260906153046 25 126 20.9 32.2 0.00 0.00 0.00 67 1007.0
20260906151537 25 113 20.9 32.2 0.00 0.00 0.00 66 1007.1
20260906150048 25 123 20.9 40.2 0.00 0.00 0.00 67 1007.0
20260906144538 23 80 14.5 22.5 0.00 0.00 0.00 75 1007.2
20260906143037 22 92 9.7 24.1 0.00 0.00 0.00 77 1007.3
20260906141537 22 107 12.9 24.1 0.00 0.00 0.00 77 1007.3
20260906140027 22 62 9.7 20.9 0.00 0.00 0.00 76 1007.4
20260906134525 22 82 14.5 22.5 0.00 0.00 0.00 78 1007.5
20260906133022 21 84 8.0 22.5 0.00 0.00 0.00 79 1007.3
20260906131525 21 43 9.7 19.3 0.00 0.00 0.00 78 1007.0
20260906130025 22 39 4.8 14.5 0.00 0.00 0.00 77 1006.8
20260906124512 22 76 8.0 17.7 0.00 0.00 0.00 77 1006.6
20260906123013 22 31 6.4 8.0 0.00 0.00 0.00 76 1006.5
20260906121510 22 16 1.6 14.5 0.00 0.00 0.00 77 1006.0
20260906120005 22 343 8.0 14.5 0.00 0.00 0.00 75 1005.9
20260906114501 22 221 3.2 8.0 0.00 0.00 0.00 75 1005.4
20260906113105 22 184 3.2 6.4 0.00 0.00 0.00 76 1005.2
20260906111530 22 180 0.0 4.8 0.00 0.00 0.00 76 1005.2
20260906110039 22 161 0.0 1.6 0.00 0.00 0.00 77 1005.2
20260906104527 22 161 0.0 0.0 0.00 0.00 0.00 77 1005.2
20260906103026 22 161 0.0 0.0 0.00 0.00 0.00 77 1005.3
20260906101526 22 161 0.0 0.0 0.00 0.00 0.00 77 1005.2
20260906100024 22 161 0.0 6.4 0.00 0.00 0.00 77 1005.1
20260906094530 22 140 3.2 8.0 0.00 0.00 0.00 77 1004.9
20260906093022 22 167 6.4 9.7 0.00 0.00 0.00 78 1005.0
20260906091521 22 176 6.4 12.9 0.00 0.00 0.00 78 1005.0
20260906090020 22 173 9.7 14.5 0.00 0.00 0.00 80 1005.0
20260906084515 22 136 11.3 17.7 0.00 0.00 0.00 75 1004.8
20260906083111 23 145 11.3 20.9 0.00 0.00 0.00 68 1004.9
20260906081526 24 192 11.3 17.7 0.00 0.00 0.00 65 1004.6
20260906080007 24 165 11.3 22.5 0.00 0.00 0.00 67 1004.8
20260906074536 23 178 11.3 17.7 0.00 0.00 0.00 69 1004.9
20260906073035 23 121 6.4 17.7 0.00 0.00 0.00 71 1005.0
20260906071504 23 123 8.0 17.7 0.00 0.00 0.00 70 1005.2
20260906070002 23 108 11.3 16.1 0.00 0.00 0.00 71 1005.2
20260906064559 23 117 8.0 14.5 0.00 0.00 0.00 71 1005.1
20260906063031 23 134 6.4 14.5 0.00 0.00 0.00 71 1004.9
20260906061534 23 112 6.4 16.1 0.00 0.00 0.00 70 1004.9
20260906060019 23 159 8.0 14.5 0.00 0.00 0.00 70 1004.8
20260906054517 23 163 8.0 14.5 0.00 0.00 0.00 69 1004.6
20260906053017 23 132 9.7 12.9 0.00 0.00 0.00 68 1004.4
20260906051512 23 145 6.4 12.9 0.00 0.00 0.00 68 1004.3
20260906050006 24 134 6.4 12.9 0.00 0.00 0.00 67 1004.2
20260906044505 24 146 8.0 12.9 0.00 0.00 0.00 66 1004.2
20260906043004 25 136 6.4 16.1 0.00 0.00 0.00 64 1004.2
20260906041505 25 150 11.3 16.1 0.00 0.00 0.00 63 1004.6
20260906040004 26 123 11.3 17.7 0.00 0.00 0.00 61 1004.6
20260906034606 26 167 11.3 24.1 0.00 0.00 0.00 60 1004.5
20260906034501 26 134 12.9 24.1 0.00 0.00 0.00 60 1004.6
20260906033100 26 144 12.9 24.1 0.00 0.00 0.00 60 1004.4
20260906031603 26 127 14.5 22.5 0.00 0.00 0.00 61 1004.2
20260906030028 26 119 8.0 16.1 0.00 0.00 0.00 62 1004.4
20260906024528 26 103 8.0 14.5 0.00 0.00 0.00 61 1004.2
20260906023024 27 128 9.7 20.9 0.00 0.00 0.00 60 1003.9
20260906021524 27 118 14.5 20.9 0.00 0.00 0.00 58 1003.6
20260906020030 27 138 14.5 25.7 0.00 0.00 0.00 57 1003.6
20260906014522 27 123 11.3 20.9 0.00 0.00 0.00 56 1003.4
20260906013020 30 123 14.5 20.9 0.00 0.00 0.00 50 1003.2
20260906011519 30 155 8.0 16.1 0.00 0.00 0.00 46 1002.6
20260906010016 31 164 11.3 19.3 0.00 0.00 0.00 45 1002.5
20260906004517 32 143 11.3 25.7 0.00 0.00 0.00 43 1002.6
20260906003022 32 153 14.5 32.2 0.00 0.00 0.00 42 1002.6
20260906001514 33 157 20.9 33.8 0.00 0.00 0.00 41 1002.5
20260906000013 33 184 16.1 24.1 0.00 0.00 0.00 39 1002.4
20260905234512 34 184 14.5 35.4 0.00 0.00 0.00 38 1002.4
20260905233011 34 138 14.5 27.4 0.00 0.00 0.00 38 1002.4
20260905231506 34 169 11.3 33.8 0.00 0.00 0.00 41 1002.3
20260905230003 34 117 16.1 30.6 0.00 0.00 0.00 41 1002.2
20260905224502 34 127 14.5 29.0 0.00 0.00 0.00 41 1002.1
20260905223056 34 151 14.5 32.2 0.00 0.00 0.00 42 1002.1
20260905221559 34 148 16.1 29.0 0.00 0.00 0.00 44 1002.1
20260905220100 34 110 12.9 27.4 0.00 0.00 0.00 44 1002.2
20260905214550 33 136 14.5 30.6 0.00 0.00 0.00 44 1002.3
20260905213020 33 126 17.7 30.6 0.00 0.00 0.00 42 1002.5
20260905211535 33 146 17.7 30.6 0.00 0.00 0.00 42 1002.8
20260905210015 33 166 17.7 27.4 0.00 0.00 0.00 44 1003.0
20260905204511 33 155 16.1 30.6 0.00 0.00 0.00 45 1003.3